Baker, MT

6:49 AM MST on December 16, 2017 (GMT -0700)
Baker Municipal

Weather History for KBHK - November, 2011

Change the Weather History Date:

Friday, November 11, 2011

  Actual Average Record
Temperature  
Mean Temperature 44 °F -  
Max Temperature 60 °F 21 °F 66 °F (2005)
Min Temperature 27 °F -18 °F -15 °F (2000)
Degree Days  
Heating Degree Days 22    
Moisture  
Dew Point 16 °F    
Average Humidity 40    
Maximum Humidity 61    
Minimum Humidity 16    
Precipitation  
Precipitation 0.00 in - - ()
Sea Level Pressure  
Sea Level Pressure 29.63 in    
Wind  
Wind Speed 11 mph (WSW)    
Max Wind Speed 20 mph    
Max Gust Speed 24 mph    
Visibility 10 miles    
Events      
Averages and records for this station are not official NWS values.
T = Trace of Precipitation, MM = Missing Value Source: NWS Daily Summary

Daily Weather History Graph

Daily Weather History Graph

Search for Another Location

Airport or City:

Trip Planner

Search our weather history database for the weather conditions in past years. The results will help you decide how hot, cold, wet, or windy it might be!

Date:

Astronomy

Nov. 11, 2011 Rise Set
Actual Time 6:52 AM MST 4:29 PM MST
Civil Twilight 6:20 AM MST 5:01 PM MST
Nautical Twilight 5:43 AM MST 5:37 PM MST
Astronomical Twilight 5:08 AM MST 6:12 PM MST
Moon 4:54 PM MST (11/11) 7:48 AM MST (11/11)
Length of Visible Light 10h 41m
Length of Day
9h 36m
Full, 99% of the Moon is Illuminated
Nov 11
Full
Nov 18
Last Quarter
Nov 24
New
Dec 2
First Quarter
Dec 10
Full

Hourly Weather History & Observations

Time (MST) Temp. Windchill Dew Point Humidity Pressure Visibility Wind Dir Wind Speed Gust Speed Precip Events Conditions
12:51 AM 36.0 °F 27.5 °F 19.0 °F 50% 29.75 in 10.0 mi West 12.7 mph - N/A   Clear
1:51 AM 37.0 °F 28.1 °F 19.0 °F 48% 29.75 in 10.0 mi West 15.0 mph - N/A   Clear
2:51 AM 35.1 °F 26.4 °F 19.0 °F 52% 29.75 in 10.0 mi West 12.7 mph - N/A   Clear
3:51 AM 34.0 °F 25.5 °F 19.0 °F 54% 29.75 in 10.0 mi West 11.5 mph - N/A   Clear
4:51 AM 32.0 °F 23.6 °F 18.0 °F 56% 29.77 in 10.0 mi West 10.4 mph - N/A   Clear
5:51 AM 28.9 °F 23.9 °F 17.1 °F 61% 29.78 in 10.0 mi West 4.6 mph - N/A   Clear
6:51 AM 33.1 °F 26.1 °F 18.0 °F 54% 29.75 in 10.0 mi SW 8.1 mph - N/A   Clear
7:51 AM 35.1 °F 30.1 °F 18.0 °F 50% 29.75 in 10.0 mi WSW 5.8 mph - N/A   Clear
8:51 AM 44.1 °F 39.0 °F 19.0 °F 37% 29.72 in 10.0 mi WSW 9.2 mph - N/A   Clear
9:51 AM 50.0 °F - 18.0 °F 28% 29.70 in 10.0 mi West 15.0 mph - N/A   Clear
10:51 AM 54.0 °F - 17.1 °F 23% 29.67 in 10.0 mi West 13.8 mph - N/A   Clear
11:51 AM 55.0 °F - 16.0 °F 22% 29.63 in 10.0 mi West 19.6 mph - N/A   Clear
12:51 PM 57.0 °F - 15.1 °F 19% 29.60 in 10.0 mi West 19.6 mph 24.2 mph N/A   Clear
1:51 PM 60.1 °F - 14.0 °F 16% 29.57 in 10.0 mi West 17.3 mph - N/A   Clear
2:51 PM 59.0 °F - 15.1 °F 18% 29.56 in 10.0 mi West 12.7 mph - N/A   Clear
3:51 PM 54.0 °F - 15.1 °F 22% 29.55 in 10.0 mi West 4.6 mph - N/A   Clear
4:51 PM 45.0 °F 41.8 °F 15.1 °F 30% 29.55 in 10.0 mi SW 5.8 mph - N/A   Clear
5:51 PM 42.1 °F 37.1 °F 15.1 °F 34% 29.55 in 10.0 mi SW 8.1 mph - N/A   Clear
6:51 PM 39.0 °F 35.7 °F 15.1 °F 38% 29.52 in 10.0 mi SSW 4.6 mph - N/A   Clear
7:51 PM 30.9 °F - 15.1 °F 52% 29.52 in 10.0 mi Calm Calm - N/A   Clear
8:51 PM 28.9 °F - 15.1 °F 56% 29.49 in 10.0 mi Calm Calm - N/A   Clear
9:51 PM 27.0 °F 23.0 °F 12.9 °F 56% 29.46 in 10.0 mi SE 3.5 mph - N/A   Clear
10:51 PM 30.0 °F - 12.0 °F 47% 29.43 in 10.0 mi Calm Calm - N/A   Clear